• In Hungary
  • List of Countries
  • For 7 days
  • Water Temperature
  • Satellite Maps
  • Weather Map
  • News
  • Weather Widgets
  • user-avatar
    Login

    Hourly Weather Malewszczyzna

    Today, 19 September, Wednesday

    Time Temperature Precipitation Wind Pressure Humidity
    00:00 +16°C° 0 mm 2 mps 740 mmHg 82%
    01:00 +16°C° 0 mm 2 mps 740 mmHg 83%
    02:00 +15°C° 0 mm 2 mps 740 mmHg 83%
    03:00 +15°C° 0 mm 2 mps 740 mmHg 83%
    04:00 +14°C° 0 mm 2 mps 740 mmHg 83%
    05:00 +14°C° 0 mm 2 mps 740 mmHg 82%
    06:00 +15°C° 0 mm 2 mps 740 mmHg 79%
    07:00 +16°C° 0 mm 2 mps 740 mmHg 76%
    08:00 +16°C° 0 mm 2 mps 740 mmHg 73%
    09:00 +18°C° 0 mm 3 mps 740 mmHg 68%
    10:00 +20°C° 0 mm 3 mps 740 mmHg 62%
    11:00 +22°C° 0 mm 3 mps 741 mmHg 56%
    12:00 +24°C° 0 mm 3 mps 740 mmHg 53%
    13:00 +25°C° 0 mm 3 mps 740 mmHg 50%
    14:00 +26°C° 0 mm 3 mps 740 mmHg 47%
    15:00 +26°C° 0 mm 2 mps 740 mmHg 49%
    16:00 +26°C° 0 mm 2 mps 740 mmHg 52%
    17:00 +25°C° 0 mm 2 mps 740 mmHg 54%
    18:00 +23°C° 0 mm 2 mps 740 mmHg 58%
    19:00 +21°C° 0 mm 1 mps 740 mmHg 62%
    20:00 +19°C° 0 mm 1 mps 740 mmHg 66%
    21:00 +18°C° 0 mm 2 mps 740 mmHg 68%
    22:00 +17°C° 0 mm 2 mps 740 mmHg 70%
    23:00 +17°C° 0 mm 2 mps 740 mmHg 71%

    Tomorrow, 20 September, Thursday

    Time Temperature Precipitation Wind Pressure Humidity
    00:00 +16°C° 0 mm 2 mps 740 mmHg 73%
    01:00 +16°C° 0 mm 2 mps 740 mmHg 74%
    02:00 +16°C° 0 mm 2 mps 740 mmHg 76%
    03:00 +15°C° 0 mm 2 mps 740 mmHg 77%
    04:00 +15°C° 0 mm 1 mps 740 mmHg 78%
    05:00 +15°C° 0 mm 1 mps 740 mmHg 79%
    06:00 +15°C° 0 mm 1 mps 740 mmHg 77%
    07:00 +16°C° 0 mm 1 mps 740 mmHg 74%
    08:00 +18°C° 0 mm 1 mps 741 mmHg 72%
    09:00 +20°C° 0 mm 1 mps 741 mmHg 66%
    10:00 +22°C° 0 mm 1 mps 741 mmHg 59%
    11:00 +24°C° 0 mm 1 mps 741 mmHg 53%
    12:00 +25°C° 0 mm 1 mps 741 mmHg 50%
    13:00 +26°C° 0 mm 1 mps 741 mmHg 46%
    14:00 +27°C° 0 mm 1 mps 740 mmHg 42%
    15:00 +27°C° 0 mm 1 mps 740 mmHg 45%
    16:00 +26°C° 0 mm 1 mps 740 mmHg 47%
    17:00 +26°C° 0 mm 1 mps 740 mmHg 49%
    18:00 +24°C° 0 mm 1 mps 740 mmHg 53%
    19:00 +22°C° 0 mm 1 mps 740 mmHg 56%
    20:00 +20°C° 0 mm 1 mps 740 mmHg 60%
    21:00 +19°C° 0 mm 1 mps 740 mmHg 62%
    22:00 +19°C° 0 mm 1 mps 740 mmHg 64%
    23:00 +18°C° 0 mm 1 mps 740 mmHg 65%

    Day after tomorrow, 21 September, Friday

    Time Temperature Precipitation Wind Pressure Humidity
    00:00 +18°C° 0 mm 1 mps 739 mmHg 68%
    01:00 +16°C° 0 mm 1 mps 739 mmHg 71%
    02:00 +16°C° 0 mm 1 mps 739 mmHg 73%
    03:00 +16°C° 0 mm 1 mps 739 mmHg 76%
    04:00 +15°C° 0 mm 1 mps 739 mmHg 78%
    05:00 +15°C° 0 mm 1 mps 739 mmHg 81%
    06:00 +16°C° 0 mm 2 mps 739 mmHg 79%
    07:00 +17°C° 0 mm 2 mps 739 mmHg 77%
    08:00 +18°C° 0 mm 2 mps 739 mmHg 76%
    09:00 +20°C° 0 mm 2 mps 739 mmHg 69%
    10:00 +22°C° 0 mm 3 mps 739 mmHg 62%
    11:00 +25°C° 0 mm 3 mps 739 mmHg 55%
    12:00 +25°C° 0 mm 3 mps 739 mmHg 52%
    13:00 +26°C° 0 mm 3 mps 738 mmHg 48%
    14:00 +27°C° 0 mm 3 mps 738 mmHg 45%
    15:00 +27°C° 0 mm 3 mps 737 mmHg 48%
    16:00 +26°C° 0 mm 3 mps 737 mmHg 51%
    17:00 +26°C° 0 mm 3 mps 737 mmHg 54%
    18:00 +24°C° 0 mm 3 mps 736 mmHg 59%
    19:00 +21°C° 0 mm 3 mps 736 mmHg 63%
    20:00 +19°C° 0 mm 3 mps 736 mmHg 68%
    21:00 +19°C° 0 mm 4 mps 736 mmHg 68%
    22:00 +19°C° 0 mm 4 mps 736 mmHg 67%
    23:00 +18°C° 0 mm 4 mps 736 mmHg 67%

    22 September, Saturday

    Time Temperature Precipitation Wind Pressure Humidity
    00:00 +18°C° 0 mm 4 mps 736 mmHg 66%
    01:00 +18°C° 0 mm 4 mps 735 mmHg 66%
    02:00 +17°C° 0 mm 4 mps 735 mmHg 66%
    03:00 +17°C° 0 mm 4 mps 735 mmHg 64%
    04:00 +17°C° 0 mm 4 mps 735 mmHg 63%
    05:00 +17°C° 0 mm 4 mps 734 mmHg 62%
    06:00 +17°C° 0 mm 4 mps 735 mmHg 61%
    07:00 +18°C° 0 mm 4 mps 735 mmHg 59%
    08:00 +19°C° 0 mm 4 mps 735 mmHg 58%
    09:00 +20°C° 0 mm 5 mps 735 mmHg 56%
    10:00 +21°C° 0 mm 5 mps 736 mmHg 55%
    11:00 +22°C° 0 mm 6 mps 737 mmHg 54%
    12:00 +21°C° 0 mm 6 mps 737 mmHg 61%
    13:00 +19°C° 0 mm 6 mps 737 mmHg 67%
    14:00 +16°C° 0 mm 6 mps 738 mmHg 74%
    15:00 +15°C° 0.1 mm 5 mps 738 mmHg 75%
    16:00 +13°C° 0.1 mm 5 mps 739 mmHg 77%
    17:00 +12°C° 0.1 mm 4 mps 739 mmHg 78%
    18:00 +11°C° 0.5 mm 4 mps 740 mmHg 81%
    19:00 +11°C° 0.5 mm 4 mps 740 mmHg 83%
    20:00 +10°C° 0.5 mm 3 mps 741 mmHg 85%
    21:00 +10°C° 0.9 mm 3 mps 741 mmHg 87%
    22:00 +10°C° 0.9 mm 3 mps 741 mmHg 88%
    23:00 +9°C° 0.9 mm 3 mps 741 mmHg 90%

    23 September, Sunday

    Time Temperature Precipitation Wind Pressure Humidity
    00:00 +9°C° 0.6 mm 3 mps 741 mmHg 89%
    01:00 +9°C° 0.6 mm 2 mps 741 mmHg 89%
    02:00 +9°C° 0.6 mm 2 mps 740 mmHg 88%
    03:00 +9°C° 0 mm 2 mps 740 mmHg 89%
    04:00 +8°C° 0 mm 2 mps 740 mmHg 90%
    05:00 +7°C° 0 mm 2 mps 740 mmHg 91%
    06:00 +8°C° 0 mm 2 mps 741 mmHg 89%
    07:00 +8°C° 0 mm 2 mps 741 mmHg 86%
    08:00 +9°C° 0 mm 3 mps 741 mmHg 84%
    09:00 +11°C° 0 mm 3 mps 741 mmHg 75%
    10:00 +12°C° 0 mm 3 mps 741 mmHg 67%
    11:00 +15°C° 0 mm 2 mps 741 mmHg 59%
    12:00 +16°C° 0 mm 2 mps 741 mmHg 54%
    13:00 +16°C° 0 mm 2 mps 741 mmHg 49%
    14:00 +17°C° 0 mm 2 mps 740 mmHg 44%
    15:00 +17°C° 0 mm 2 mps 740 mmHg 46%
    16:00 +16°C° 0 mm 2 mps 740 mmHg 49%
    17:00 +16°C° 0 mm 2 mps 739 mmHg 51%
    18:00 +14°C° 0 mm 2 mps 739 mmHg 55%
    19:00 +13°C° 0 mm 2 mps 739 mmHg 60%
    20:00 +10°C° 0 mm 2 mps 738 mmHg 64%
    21:00 +10°C° 0 mm 3 mps 738 mmHg 66%
    22:00 +10°C° 0 mm 3 mps 737 mmHg 68%
    23:00 +8°C° 0 mm 4 mps 737 mmHg 70%

    24 September, Monday

    Time Temperature Precipitation Wind Pressure Humidity
    00:00 +10°C° 0 mm 4 mps 736 mmHg 69%
    01:00 +9°C° 0 mm 5 mps 736 mmHg 69%
    02:00 +9°C° 0 mm 5 mps 735 mmHg 68%
    03:00 +9°C° 0 mm 5 mps 734 mmHg 68%
    04:00 +9°C° 0 mm 5 mps 734 mmHg 68%
    05:00 +9°C° 0 mm 6 mps 733 mmHg 67%
    06:00 +9°C° 0 mm 6 mps 733 mmHg 66%
    07:00 +10°C° 0 mm 6 mps 732 mmHg 64%
    08:00 +10°C° 0 mm 6 mps 732 mmHg 62%
    09:00 +10°C° 0.1 mm 6 mps 731 mmHg 63%
    10:00 +12°C° 0.1 mm 5 mps 731 mmHg 65%
    11:00 +12°C° 0.1 mm 5 mps 731 mmHg 66%
    12:00 +14°C° 0 mm 5 mps 730 mmHg 62%
    13:00 +16°C° 0 mm 5 mps 730 mmHg 58%
    14:00 +20°C° 0 mm 5 mps 730 mmHg 55%
    15:00 +17°C° 0.1 mm 5 mps 730 mmHg 61%
    16:00 +16°C° 0.1 mm 5 mps 730 mmHg 67%
    17:00 +15°C° 0.1 mm 4 mps 730 mmHg 73%
    18:00 +14°C° 0.5 mm 3 mps 729 mmHg 79%
    19:00 +13°C° 0.5 mm 3 mps 729 mmHg 84%
    20:00 +12°C° 0.5 mm 2 mps 729 mmHg 90%
    21:00 +12°C° 1.8 mm 2 mps 729 mmHg 91%
    22:00 +12°C° 1.8 mm 2 mps 729 mmHg 93%
    23:00 +12°C° 1.8 mm 2 mps 729 mmHg 94%
    Show more